QPF
0.00 0.00 0.00 0.00 0.00 0.00 0.10 0.04 0.00 0.03 0.06 0.08 0.09 0.10 0.08 0.02 0.02 0.04 0.19 0.11 0.12 0.12 0.11 0.10 0.10 0.11 0.07 0.08 0.13 0.26 0.14 0.10 0.09 0.06 0.01 0.00 0.00 0.00 0.00 0.00 0.00 0.00 0.00
0.00 0.00 0.00 0.00 0.00 0.00 0.01 0.01 0.01 0.01 0.01 0.00 0.03 0.08 0.10 0.06 0.05 0.06 0.16 0.10 0.05 0.03 0.04 0.10 0.14 0.14 0.16 0.21 0.15 0.18 0.21 0.12 0.13 0.06 0.05 0.03 0.02 0.00 0.00 0.00 0.00 0.00 0.02
0.00 0.00 0.00 0.00 0.00 0.00 0.00 0.00 0.00 0.00 0.00 0.02 0.03 0.04 0.12 0.14 0.14 0.13 0.04 0.04 0.01 0.00 0.00 0.02 0.05 0.08 0.11 0.13 0.29 0.19 0.20 0.16 0.15 0.09 0.08 0.04 0.07 0.01 0.06 0.12 0.06 0.05 0.05
0.00 0.00 0.00 0.00 0.00 0.00 0.00 0.00 0.00 0.00 0.00 0.00 0.00 0.08 0.20 0.11 0.05 0.01 0.01 0.00 0.00 0.00 0.00 0.01 0.03 0.07 0.08 0.09 0.16 0.14 0.17 0.12 0.13 0.06 0.01 0.00 0.06 0.06 0.06 0.07 0.07 0.06 0.04
0.00 0.00 0.00 0.00 0.00 0.00 0.00 0.00 0.00 0.00 0.00 0.00 0.02 0.09 0.10 0.02 0.00 0.00 0.00 0.00 0.01 0.02 0.04 0.06 0.04 0.07 0.08 0.09 0.11 0.14 0.24 0.20 0.20 0.09 0.11 0.06 0.03 0.04 0.05 0.04 0.03 0.04 0.01
0.00 0.00 0.00 0.00 0.00 0.00 0.00 0.00 0.00 0.00 0.00 0.00 0.00 0.01 0.00 0.00 0.00 0.00 0.00 0.00 0.00 0.02 0.07 0.05 0.08 0.09 0.10 0.09 0.13 0.12 0.24 0.28 0.16 0.10 0.10 0.08 0.07 0.07 0.04 0.03 0.01 0.00 0.00
0.00 0.00 0.00 0.00 0.00 0.00 0.00 0.00 0.00 0.00 0.00 0.00 0.00 0.00 0.00 0.00 0.00 0.00 0.00 0.00 0.00 0.00 0.06 0.05 0.06 0.06 0.10 0.08 0.11 0.21 0.26 0.17 0.09 0.05 0.07 0.09 0.03 0.08 0.08 0.06 0.02 0.01 0.00
0.00 0.00 0.00 0.00 0.00 0.00 0.00 0.00 0.00 0.00 0.00 0.00 0.00 0.00 0.00 0.00 0.00 0.00 0.00 0.00 0.00 0.01 0.04 0.06 0.04 0.05 0.06 0.04 0.10 0.10 0.12 0.11 0.06 0.01 0.02 0.05 0.06 0.09 0.05 0.07 0.09 0.05 0.03
0.00 0.00 0.00 0.00 0.00 0.00 0.00 0.00 0.00 0.00 0.00 0.00 0.00 0.00 0.00 0.00 0.00 0.00 0.00 0.00 0.01 0.00 0.01 0.04 0.07 0.05 0.04 0.03 0.04 0.09 0.11 0.09 0.14 0.07 0.04 0.08 0.17 0.06 0.09 0.07 0.05 0.05 0.04
0.00 0.00 0.00 0.00 0.00 0.00 0.00 0.00 0.00 0.00 0.00 0.00 0.00 0.00 0.00 0.00 0.00 0.00 0.00 0.00 0.01 0.01 0.00 0.00 0.02 0.06 0.07 0.07 0.10 0.19 0.20 0.22 0.28 0.23 0.17 0.19 0.20 0.13 0.09 0.11 0.08 0.04 0.05
0.00 0.00 0.00 0.00 0.00 0.00 0.00 0.00 0.00 0.00 0.00 0.00 0.00 0.00 0.00 0.00 0.00 0.00 0.00 0.00 0.01 0.01 0.00 0.00 0.00 0.01 0.06 0.09 0.10 0.05 0.07 0.05 0.08 0.04 0.07 0.10 0.14 0.17 0.13 0.08 0.11 0.11 0.11
0.00 0.00 0.00 0.00 0.00 0.00 0.00 0.01 0.00 0.00 0.00 0.00 0.00 0.00 0.00 0.00 0.00 0.00 0.00 0.00 0.00 0.00 0.00 0.00 0.00 0.01 0.00 0.01 0.00 0.00 0.00 0.00 0.00 0.00 0.00 0.00 0.02 0.05 0.07 0.07 0.08 0.11 0.11
0.00 0.00 0.00 0.00 0.00 0.00 0.02 0.07 0.00 0.00 0.00 0.00 0.00 0.00 0.00 0.00 0.00 0.00 0.00 0.00 0.00 0.00 0.00 0.00 0.00 0.00 0.00 0.00 0.00 0.00 0.00 0.00 0.00 0.00 0.00 0.00 0.00 0.00 0.01 0.00 0.00 0.01 0.02
0.00 0.00 0.00 0.00 0.00 0.00 0.00 0.00 0.00 0.00 0.00 0.00 0.00 0.00 0.00 0.00 0.00 0.00 0.00 0.00 0.00 0.00 0.00 0.00 0.00 0.00 0.00 0.00 0.00 0.00 0.00 0.00 0.00 0.00 0.00 0.00 0.00 0.00 0.00 0.00 0.00 0.00 0.00
0.00 0.00 0.00 0.00 0.00 0.00 0.00 0.00 0.00 0.00 0.00 0.00 0.00 0.00 0.00 0.01 0.02 0.00 0.00 0.00 0.00 0.00 0.00 0.00 0.00 0.00 0.00 0.00 0.00 0.00 0.00 0.00 0.00 0.00 0.00 0.00 0.00 0.00 0.00 0.00 0.00 0.00 0.00
0.00 0.00 0.00 0.00 0.00 0.00 0.00 0.00 0.00 0.00 0.00 0.00 0.00 0.01 0.04 0.06 0.09 0.01 0.00 0.00 0.00 0.00 0.00 0.00 0.00 0.00 0.00 0.00 0.00 0.00 0.00 0.00 0.00 0.00 0.00 0.00 0.00 0.00 0.00 0.00 0.00 0.00 0.00
0.00 0.00 0.00 0.00 0.00 0.00 0.00 0.00 0.00 0.00 0.00 0.00 0.05 0.11 0.12 0.10 0.10 0.05 0.00 0.00 0.00 0.00 0.00 0.00 0.00 0.00 0.00 0.00 0.00 0.00 0.00 0.00 0.00 0.00 0.00 0.00 0.00 0.00 0.00 0.00 0.00 0.00 0.00
0.00 0.01 0.00 0.00 0.00 0.00 0.00 0.00 0.00 0.00 0.00 0.01 0.04 0.03 0.04 0.08 0.11 0.07 0.00 0.00 0.00 0.00 0.00 0.00 0.00 0.00 0.00 0.00 0.00 0.00 0.00 0.00 0.00 0.00 0.00 0.00 0.00 0.00 0.00 0.00 0.00 0.00 0.00
0.00 0.03 0.00 0.00 0.01 0.01 0.00 0.00 0.00 0.00 0.01 0.03 0.00 0.00 0.01 0.01 0.02 0.02 0.00 0.00 0.00 0.00 0.00 0.00 0.00 0.00 0.00 0.00 0.00 0.00 0.00 0.00 0.00 0.00 0.00 0.00 0.00 0.00 0.00 0.00 0.00 0.00 0.00
0.00 0.05 0.04 0.06 0.06 0.01 0.00 0.00 0.00 0.00 0.00 0.00 0.00 0.00 0.00 0.00 0.00 0.00 0.00 0.00 0.00 0.00 0.00 0.00 0.00 0.00 0.00 0.00 0.00 0.00 0.00 0.00 0.00 0.00 0.00 0.00 0.00 0.00 0.00 0.00 0.00 0.00 0.00
0.09 0.14 0.05 0.04 0.02 0.00 0.00 0.00 0.00 0.00 0.00 0.00 0.00 0.00 0.00 0.00 0.00 0.00 0.00 0.00 0.00 0.00 0.00 0.00 0.00 0.00 0.00 0.00 0.00 0.00 0.00 0.00 0.00 0.00 0.00 0.00 0.00 0.00 0.00 0.00 0.00 0.00 0.00
0.04 0.01 0.00 0.01 0.02 0.00 0.00 0.00 0.00 0.00 0.00 0.00 0.00 0.00 0.00 0.00 0.00 0.00 0.00 0.00 0.00 0.00 0.00 0.00 0.00 0.00 0.00 0.00 0.00 0.00 0.00 0.00 0.00 0.00 0.00 0.00 0.00 0.00 0.00 0.00 0.00 0.00 0.00
0.00 0.00 0.01 0.01 0.00 0.00 0.00 0.00 0.00 0.00 0.00 0.00 0.00 0.00 0.00 0.00 0.00 0.00 0.00 0.00 0.00 0.00 0.00 0.00 0.00 0.00 0.00 0.00 0.00 0.00 0.00 0.00 0.00 0.00 0.00 0.00 0.00 0.00 0.00 0.00 0.00 0.00 0.00
0.00 0.00 0.00 0.00 0.00 0.00 0.00 0.00 0.00 0.00 0.00 0.00 0.00 0.00 0.00 0.00 0.00 0.00 0.00 0.00 0.00 0.00 0.00 0.00 0.00 0.00 0.00 0.00 0.00 0.00 0.00 0.00 0.00 0.00 0.00 0.00 0.00 0.00 0.00 0.00 0.00 0.00 0.00
0.02 0.02 0.03 0.03 0.02 0.02 0.02 0.00 0.00 0.00 0.00 0.00 0.00 0.00 0.00 0.00 0.00 0.00 0.00 0.00 0.00 0.00 0.00 0.00 0.00 0.00 0.00 0.00 0.00 0.00 0.00 0.00 0.00 0.00 0.00 0.00 0.00 0.00 0.00 0.00 0.00 0.00 0.00
0.03 0.04 0.06 0.06 0.04 0.01 0.00 0.00 0.00 0.00 0.00 0.00 0.00 0.00 0.00 0.00 0.00 0.00 0.00 0.00 0.00 0.00 0.00 0.00 0.00 0.00 0.00 0.00 0.00 0.00 0.00 0.00 0.00 0.00 0.00 0.00 0.00 0.00 0.00 0.00 0.00 0.00 0.00
MSLP
1005.80 1006.65 1007.34 1007.95 1009.21 1009.96 1010.76 1011.46 1012.17 1013.00 1013.74 1014.46 1014.77 1014.43 1014.18 1013.84 1014.19 1014.20 1014.44 1014.30 1014.56 1014.18 1014.10 1014.08 1014.21 1014.08 1014.60 1014.54 1014.36 1014.97 1015.64 1015.40 1014.92 1015.11 1014.42 1014.29 1014.41 1014.90 1014.83 1014.72 1014.87 1015.16 1015.57
1005.61 1006.70 1007.67 1008.78 1009.55 1010.38 1010.99 1011.62 1012.43 1013.25 1013.76 1013.74 1014.38 1014.30 1014.33 1013.79 1014.00 1013.77 1014.04 1013.97 1013.73 1013.59 1013.33 1013.84 1014.08 1014.08 1014.10 1014.16 1014.27 1014.52 1015.47 1015.38 1015.20 1014.90 1014.70 1014.72 1014.48 1014.02 1014.08 1014.35 1014.76 1015.01 1015.08
1005.64 1006.96 1008.02 1008.97 1009.85 1010.72 1011.20 1011.84 1012.79 1013.51 1013.87 1013.85 1014.07 1014.26 1014.26 1014.13 1014.26 1014.08 1013.60 1013.35 1013.04 1012.87 1013.08 1013.34 1013.49 1013.76 1013.84 1013.68 1013.57 1013.89 1014.46 1014.75 1014.56 1014.40 1014.88 1014.94 1014.49 1014.01 1013.57 1014.47 1014.81 1014.94 1014.97
1005.54 1006.95 1008.19 1009.22 1009.94 1010.83 1011.27 1011.86 1012.83 1013.40 1013.81 1014.06 1014.09 1014.09 1014.10 1014.09 1013.92 1013.58 1013.66 1013.32 1012.98 1012.94 1013.24 1013.27 1013.01 1013.32 1013.34 1013.33 1013.36 1013.48 1013.64 1014.03 1014.45 1014.63 1014.62 1014.67 1014.96 1014.75 1014.77 1015.04 1014.94 1014.76 1014.79
1005.13 1006.58 1007.88 1009.30 1009.87 1010.40 1010.91 1011.72 1012.76 1013.30 1013.53 1013.83 1013.85 1013.87 1013.90 1013.64 1013.36 1013.46 1013.49 1013.31 1013.17 1013.11 1013.30 1013.28 1012.98 1013.05 1013.03 1013.04 1013.12 1013.18 1013.25 1013.71 1014.02 1014.36 1014.49 1014.63 1014.43 1014.54 1014.85 1014.82 1014.85 1014.63 1014.47
1005.03 1006.59 1007.96 1009.30 1009.90 1010.61 1011.19 1011.78 1012.68 1013.21 1013.44 1013.58 1013.63 1013.67 1013.73 1013.70 1013.72 1013.82 1013.83 1013.41 1013.37 1013.36 1013.50 1013.01 1013.01 1012.81 1012.85 1012.84 1012.88 1012.90 1013.02 1013.26 1013.73 1014.13 1014.46 1014.61 1014.63 1014.36 1014.56 1014.79 1014.90 1014.63 1014.36
1005.19 1006.87 1008.32 1009.24 1010.10 1010.80 1011.33 1011.98 1012.78 1013.13 1013.37 1013.39 1013.48 1013.63 1013.78 1013.89 1013.86 1013.91 1013.92 1013.71 1013.54 1013.65 1013.70 1013.40 1013.11 1012.85 1012.78 1012.69 1012.76 1012.73 1012.82 1013.12 1013.57 1013.79 1014.19 1014.38 1014.32 1014.34 1014.45 1014.64 1014.89 1014.70 1014.53
1005.57 1007.02 1008.16 1009.17 1009.91 1010.50 1011.19 1011.71 1012.42 1013.00 1013.19 1013.36 1013.51 1013.79 1013.93 1014.00 1013.95 1014.20 1014.29 1014.14 1014.20 1014.17 1014.00 1013.68 1013.38 1013.05 1012.88 1012.58 1012.63 1012.64 1012.83 1013.12 1013.44 1013.70 1014.09 1014.27 1014.18 1014.15 1014.47 1014.39 1014.65 1014.79 1014.71
1005.29 1006.62 1007.80 1008.92 1009.58 1010.24 1010.87 1011.41 1012.03 1012.48 1012.96 1013.36 1013.68 1013.95 1014.16 1014.22 1014.47 1014.57 1014.61 1014.60 1014.67 1014.56 1014.41 1014.08 1013.81 1013.43 1013.12 1012.83 1012.79 1012.85 1012.98 1013.21 1013.40 1013.62 1013.92 1014.16 1014.07 1014.05 1014.14 1014.03 1014.25 1014.68 1014.84
1004.74 1006.18 1007.50 1008.65 1009.27 1009.87 1010.38 1010.82 1011.50 1011.92 1012.52 1013.11 1013.62 1013.92 1014.12 1014.28 1014.53 1014.63 1014.82 1015.14 1015.06 1014.88 1014.79 1014.65 1014.27 1013.87 1013.62 1013.27 1013.11 1013.28 1013.27 1013.45 1013.37 1013.52 1013.87 1013.96 1013.94 1014.00 1014.01 1014.02 1014.30 1014.41 1014.67
1004.40 1005.82 1007.12 1008.23 1008.78 1009.17 1009.61 1010.24 1010.78 1011.33 1012.05 1012.74 1013.35 1013.83 1013.87 1014.25 1014.53 1014.84 1015.09 1015.42 1015.16 1015.16 1015.16 1015.03 1014.62 1014.44 1014.33 1014.10 1013.93 1014.03 1014.02 1014.08 1014.17 1014.15 1014.07 1014.12 1014.12 1014.09 1014.19 1014.17 1014.23 1014.57 1014.81
1004.13 1005.49 1006.64 1007.76 1008.24 1008.66 1009.60 1010.56 1011.49 1011.13 1011.56 1012.45 1013.28 1013.70 1013.98 1014.38 1014.74 1015.03 1015.35 1015.47 1015.23 1015.45 1015.50 1015.26 1014.98 1014.91 1015.03 1014.97 1014.97 1015.07 1015.10 1015.11 1015.16 1015.13 1014.88 1014.86 1014.82 1014.93 1014.94 1014.79 1014.84 1014.92 1014.99
1004.31 1005.43 1006.50 1007.57 1008.16 1008.67 1010.18 1008.02 1010.58 1011.57 1011.29 1012.47 1013.20 1013.56 1013.92 1014.43 1014.85 1015.11 1015.46 1015.52 1015.51 1015.66 1015.66 1015.58 1015.50 1015.47 1015.72 1015.84 1015.90 1015.98 1016.13 1016.26 1016.25 1016.11 1016.02 1015.96 1015.74 1015.78 1015.69 1015.57 1015.40 1015.48 1015.65
1004.71 1005.90 1006.97 1007.97 1008.43 1008.84 1009.71 1010.13 1010.70 1010.81 1011.24 1012.16 1012.82 1013.42 1013.83 1014.31 1014.84 1015.16 1015.64 1015.73 1015.64 1015.65 1015.75 1015.90 1015.99 1015.96 1016.26 1016.46 1016.59 1016.65 1016.73 1016.92 1017.02 1017.02 1017.04 1016.97 1016.80 1016.59 1016.36 1016.12 1016.01 1015.92 1016.09
1005.11 1006.35 1007.58 1008.53 1008.94 1009.49 1009.55 1009.63 1009.89 1010.42 1011.26 1012.05 1012.61 1013.06 1013.52 1014.27 1014.81 1015.27 1015.73 1016.01 1016.02 1016.04 1016.04 1016.14 1016.28 1016.47 1016.82 1017.14 1017.11 1017.21 1017.23 1017.35 1017.47 1017.57 1017.62 1017.70 1017.66 1017.45 1017.15 1017.01 1016.94 1016.69 1016.76
1005.74 1006.63 1007.97 1009.03 1009.59 1010.08 1010.32 1010.29 1010.46 1010.98 1011.49 1012.21 1012.68 1013.17 1013.55 1014.24 1014.74 1015.19 1015.82 1016.17 1016.31 1016.27 1016.29 1016.62 1016.79 1017.16 1017.64 1017.67 1017.57 1017.55 1017.54 1017.54 1017.57 1017.67 1017.81 1018.09 1018.17 1018.07 1017.92 1017.79 1017.68 1017.45 1017.43
1006.11 1006.95 1008.20 1009.22 1009.79 1010.08 1010.42 1010.73 1011.14 1011.71 1012.22 1012.79 1013.25 1013.46 1013.82 1014.20 1014.52 1015.17 1015.65 1016.20 1016.59 1016.43 1016.70 1017.08 1017.38 1017.69 1017.95 1018.02 1018.03 1017.92 1017.80 1017.75 1017.79 1017.82 1017.95 1018.12 1018.66 1018.53 1018.50 1018.48 1018.46 1018.39 1018.21
1006.13 1007.31 1008.23 1009.25 1009.64 1010.07 1010.88 1011.38 1011.97 1012.36 1012.73 1013.44 1013.88 1014.29 1014.62 1014.52 1014.61 1015.23 1015.66 1016.07 1016.70 1016.83 1017.09 1017.41 1017.70 1018.14 1018.66 1018.50 1018.27 1018.06 1018.03 1018.15 1018.42 1018.48 1018.43 1018.66 1019.05 1019.16 1019.04 1019.29 1019.33 1019.30 1019.21
1006.37 1007.63 1008.67 1009.62 1010.41 1010.92 1011.61 1012.14 1012.54 1012.85 1013.56 1014.02 1014.62 1014.98 1015.38 1015.41 1015.14 1015.42 1015.86 1016.15 1016.70 1017.00 1017.27 1017.54 1017.85 1018.38 1019.03 1019.10 1018.76 1018.39 1018.29 1018.61 1018.99 1019.35 1019.30 1019.25 1019.55 1019.57 1019.43 1019.43 1019.64 1019.85 1020.00
1007.59 1008.47 1009.45 1011.02 1011.70 1012.26 1012.34 1012.85 1013.50 1013.97 1014.53 1015.20 1015.89 1016.23 1016.50 1016.42 1015.80 1015.73 1016.17 1016.49 1016.91 1017.16 1017.55 1017.94 1018.57 1018.77 1019.36 1019.43 1019.11 1018.65 1018.26 1018.51 1019.08 1019.72 1020.12 1020.17 1020.20 1020.00 1019.58 1019.49 1019.52 1019.79 1019.80
1009.65 1010.09 1010.73 1011.23 1012.31 1013.05 1013.41 1013.95 1014.70 1015.57 1016.13 1016.43 1016.82 1017.13 1017.33 1017.22 1016.76 1016.62 1016.78 1016.91 1017.21 1017.53 1018.12 1018.56 1019.30 1019.72 1019.93 1019.93 1019.60 1019.11 1018.95 1018.65 1018.94 1019.54 1020.44 1020.99 1020.93 1020.46 1020.20 1019.99 1020.01 1020.20 1020.12
1010.93 1011.41 1011.79 1012.86 1013.61 1013.83 1014.33 1015.26 1016.00 1016.53 1016.92 1017.33 1017.64 1017.96 1018.12 1018.02 1017.83 1017.73 1017.80 1017.81 1017.84 1018.24 1018.71 1019.33 1019.77 1020.60 1020.81 1020.35 1020.15 1019.92 1019.58 1019.30 1019.74 1020.32 1020.93 1021.28 1021.26 1021.01 1020.65 1020.55 1020.50 1020.35 1020.24
1011.67 1012.45 1013.17 1013.88 1014.51 1014.61 1015.12 1016.08 1016.72 1016.99 1017.41 1017.71 1018.14 1018.55 1018.78 1018.83 1018.80 1018.77 1018.78 1018.86 1019.07 1019.32 1019.79 1020.29 1020.77 1021.32 1021.35 1021.06 1020.97 1020.67 1020.42 1020.24 1020.33 1020.90 1021.23 1021.41 1021.41 1021.20 1020.91 1020.73 1020.59 1020.42 1020.27
1012.32 1013.06 1013.74 1014.50 1015.20 1015.65 1016.06 1016.60 1016.89 1017.19 1017.53 1017.91 1018.41 1018.90 1019.19 1019.54 1019.68 1019.69 1019.84 1019.99 1020.26 1020.54 1020.72 1020.94 1021.31 1021.66 1021.55 1021.54 1021.67 1021.43 1021.31 1021.16 1021.30 1021.29 1021.32 1021.44 1021.41 1021.09 1020.79 1020.69 1020.59 1020.47 1020.30
1012.81 1013.39 1014.33 1015.27 1015.69 1015.93 1016.30 1016.74 1017.00 1017.25 1017.49 1017.71 1018.14 1018.72 1019.34 1019.71 1020.17 1020.60 1020.78 1021.00 1021.35 1021.29 1021.36 1021.54 1021.68 1021.85 1021.86 1022.16 1022.28 1022.04 1021.76 1021.83 1021.76 1021.67 1021.49 1021.47 1021.25 1021.01 1020.40 1020.37 1020.49 1020.56 1020.57
1013.50 1014.10 1014.66 1015.31 1016.02 1016.31 1016.34 1016.80 1017.01 1017.13 1017.40 1017.40 1017.74 1018.36 1018.94 1019.30 1019.74 1020.41 1021.11 1021.88 1022.01 1022.09 1022.03 1021.91 1022.02 1022.31 1022.44 1022.45 1022.46 1022.27 1022.05 1021.98 1022.11 1021.84 1021.31 1020.92 1020.45 1020.18 1020.21 1020.26 1020.38 1020.51 1020.78
Thickness
5840 5836 5830 5825 5811 5804 5794 5787 5778 5767 5755 5742 5740 5745 5752 5757 5756 5757 5757 5747 5758 5756 5752 5751 5750 5751 5745 5745 5750 5741 5734 5731 5725 5740 5751 5757 5758 5754 5758 5761 5760 5760 5757
5836 5830 5823 5814 5806 5796 5790 5781 5774 5763 5752 5744 5744 5749 5750 5758 5757 5759 5758 5761 5759 5753 5756 5750 5747 5749 5749 5747 5744 5742 5733 5735 5739 5736 5740 5732 5742 5755 5759 5759 5758 5756 5756
5830 5824 5816 5811 5803 5793 5787 5780 5769 5759 5753 5749 5749 5750 5752 5754 5750 5751 5755 5756 5756 5757 5753 5749 5750 5748 5747 5746 5748 5743 5737 5730 5736 5740 5732 5725 5725 5742 5758 5751 5752 5753 5754
5835 5824 5813 5804 5800 5792 5789 5781 5770 5761 5754 5751 5751 5749 5746 5744 5752 5753 5751 5752 5751 5750 5748 5748 5749 5748 5747 5746 5744 5743 5741 5737 5729 5733 5734 5734 5732 5726 5728 5739 5744 5751 5751
5835 5824 5815 5803 5800 5796 5791 5783 5771 5762 5758 5755 5753 5752 5749 5753 5757 5755 5752 5751 5751 5748 5746 5745 5747 5745 5745 5744 5743 5740 5738 5735 5730 5728 5728 5728 5731 5735 5728 5727 5734 5745 5750
5835 5824 5815 5805 5798 5793 5787 5779 5769 5763 5760 5759 5758 5756 5752 5751 5749 5747 5744 5747 5748 5747 5744 5745 5744 5744 5743 5741 5739 5739 5737 5733 5728 5727 5726 5725 5724 5728 5729 5727 5730 5735 5743
5830 5816 5804 5799 5792 5786 5782 5775 5766 5761 5761 5760 5758 5757 5754 5749 5746 5744 5742 5742 5742 5741 5739 5741 5742 5743 5742 5741 5739 5737 5734 5731 5727 5725 5724 5726 5728 5731 5731 5729 5727 5730 5735
5822 5811 5805 5798 5792 5786 5780 5775 5767 5760 5760 5758 5756 5754 5752 5748 5746 5741 5739 5739 5737 5737 5737 5738 5740 5741 5740 5741 5739 5736 5733 5730 5727 5725 5723 5723 5726 5730 5728 5728 5725 5723 5727
5821 5813 5806 5797 5791 5785 5779 5775 5768 5764 5761 5756 5753 5750 5747 5745 5740 5738 5738 5737 5734 5734 5734 5735 5736 5738 5738 5739 5737 5733 5731 5729 5726 5725 5723 5722 5725 5728 5729 5731 5730 5724 5718
5823 5815 5804 5795 5792 5786 5781 5777 5771 5765 5761 5757 5752 5748 5746 5744 5741 5739 5736 5731 5731 5731 5731 5731 5733 5734 5734 5735 5734 5730 5730 5725 5724 5725 5723 5723 5725 5727 5728 5729 5728 5727 5723
5822 5813 5805 5797 5792 5787 5781 5776 5773 5767 5761 5757 5753 5747 5746 5742 5741 5736 5733 5729 5731 5730 5726 5727 5729 5729 5728 5730 5729 5725 5724 5721 5720 5721 5721 5721 5723 5723 5723 5725 5725 5723 5720
5825 5815 5806 5797 5791 5786 5770 5762 5753 5765 5763 5758 5751 5746 5744 5740 5737 5733 5731 5730 5730 5726 5724 5725 5726 5725 5722 5722 5720 5716 5715 5712 5711 5712 5714 5715 5716 5715 5715 5716 5715 5715 5715
5821 5813 5805 5795 5789 5781 5759 5741 5757 5757 5763 5754 5748 5745 5741 5738 5735 5732 5729 5728 5727 5723 5724 5723 5721 5720 5715 5713 5712 5709 5706 5703 5703 5704 5705 5705 5705 5704 5706 5707 5708 5706 5704
5814 5807 5799 5790 5786 5780 5768 5766 5763 5765 5761 5755 5750 5744 5741 5739 5735 5732 5726 5724 5724 5722 5722 5720 5717 5717 5712 5709 5707 5705 5702 5699 5697 5697 5696 5696 5696 5697 5699 5700 5700 5700 5697
5807 5800 5793 5785 5781 5774 5774 5773 5770 5768 5761 5757 5752 5745 5744 5739 5734 5729 5724 5721 5720 5718 5719 5716 5714 5712 5708 5703 5703 5701 5699 5697 5694 5692 5690 5689 5688 5688 5690 5690 5689 5689 5686
5801 5797 5790 5781 5776 5772 5768 5770 5768 5764 5761 5755 5750 5747 5744 5738 5732 5728 5722 5719 5716 5716 5714 5710 5707 5704 5700 5697 5697 5698 5696 5694 5692 5689 5687 5683 5681 5680 5680 5680 5679 5680 5678
5798 5793 5785 5779 5776 5774 5774 5767 5764 5761 5756 5750 5746 5743 5741 5736 5732 5728 5721 5716 5711 5713 5708 5704 5701 5698 5695 5692 5691 5691 5692 5690 5688 5685 5682 5679 5673 5673 5672 5670 5668 5666 5667
5796 5791 5785 5779 5780 5778 5769 5765 5759 5754 5751 5742 5739 5736 5732 5732 5730 5725 5720 5715 5709 5706 5703 5699 5696 5692 5687 5686 5687 5688 5687 5683 5678 5675 5675 5671 5665 5661 5661 5657 5654 5652 5650
5795 5786 5783 5776 5771 5767 5763 5758 5754 5751 5743 5738 5734 5730 5724 5722 5725 5719 5714 5711 5705 5702 5698 5696 5693 5688 5681 5677 5679 5681 5680 5674 5667 5662 5659 5660 5656 5652 5652 5650 5645 5640 5636
5784 5779 5772 5760 5756 5753 5755 5750 5742 5738 5733 5728 5721 5718 5713 5711 5717 5715 5709 5705 5701 5698 5694 5690 5684 5680 5674 5670 5671 5673 5676 5669 5661 5654 5647 5644 5642 5643 5644 5644 5639 5634 5630
5762 5763 5758 5755 5747 5744 5743 5736 5729 5722 5718 5716 5711 5706 5703 5702 5705 5705 5702 5699 5694 5691 5686 5682 5675 5669 5664 5662 5662 5663 5663 5662 5656 5647 5637 5631 5629 5631 5630 5631 5627 5622 5619
5747 5749 5746 5736 5733 5734 5730 5720 5713 5711 5709 5704 5699 5695 5693 5693 5693 5692 5690 5689 5688 5683 5677 5671 5664 5655 5652 5652 5650 5650 5649 5649 5642 5634 5627 5622 5619 5619 5618 5616 5612 5610 5608
5741 5735 5728 5724 5721 5723 5719 5708 5705 5704 5700 5697 5691 5686 5683 5682 5681 5680 5679 5677 5674 5669 5661 5654 5649 5641 5638 5638 5635 5634 5633 5631 5628 5620 5615 5610 5608 5607 5607 5604 5602 5599 5598
5730 5726 5720 5715 5709 5708 5705 5700 5699 5697 5693 5689 5684 5679 5675 5671 5669 5668 5666 5663 5659 5653 5648 5644 5638 5632 5630 5627 5623 5620 5617 5614 5610 5607 5604 5600 5599 5598 5598 5594 5592 5590 5588
5721 5718 5709 5701 5700 5700 5697 5693 5691 5689 5686 5685 5680 5675 5669 5664 5659 5653 5651 5649 5643 5641 5638 5633 5628 5624 5621 5613 5607 5606 5606 5602 5598 5595 5593 5589 5588 5587 5590 5586 5582 5579 5576
5710 5705 5701 5696 5690 5688 5688 5684 5684 5683 5678 5679 5677 5671 5665 5661 5656 5649 5641 5634 5631 5628 5624 5620 5616 5610 5605 5600 5596 5594 5592 5589 5585 5584 5585 5584 5586 5585 5581 5577 5572 5569 5564